Voltar ao catálogo

STARLINK-37303

AtivoComunicaçõesVLEO
NORAD 68709·PAYLOAD·🇺🇸 United States

Lançado Apr 14, 2026 de Cape Canaveral Space Force Station

Loading…

Próximas Passagens (próximas 24 horas)

TLE

AtualizadoSource: CelesTrak SupGP

Época: Sep 15, 2026, 02:50 UTC

1 68709C 26081L   26258.11854167 -.00056446  00000+0 -16677-2 0  2586
2 68709  53.1579 230.9924 0001293  92.2553 162.3338 15.34418984    16

Acompanhe STARLINK-37303 em tempo real com AllMySat

Download on the App Store